Consulta los datos en tiempo real de la estación municipal de Susqueda - St. Martí Sacalm
| Hora UTC | 19:40 |
|---|---|
| Temperatura | 20.6 ºC |
| Humedad | 80.3 % |
| Presión | 1021.7 hPa |
| Pluja | 0.0 mm |
| Velocidad viento | 1.2 km/h |
| Dirección viento | W |
| Radiación solar | 0.1 W/m² |
| Temperatura (ºC) | Humedad (%) | Presión (hPa) | Velocidad viento (km/h) | Precipitación (mm) | Radiación solar (W/m²) | |||||||||||||
|---|---|---|---|---|---|---|---|---|---|---|---|---|---|---|---|---|---|---|
| Hora UTC | Aire | Humedad | Presión | Vel. | Dir. | Vel. Max | Dir. | Intent. máx 5 min. | Rad. Sol. | |||||||||
| 00:05 | 18.7 | 94.2 | 1023.4 | 0.0 | NNE | 0.0 | WSW | 0.0 | 0.1 | |||||||||
| 00:10 | 18.7 | 93.6 | 1023.4 | 0.0 | NNE | 0.0 | WSW | 0.0 | 0.1 | |||||||||
| 00:15 | 18.7 | 93.1 | 1023.4 | 0.0 | NNE | 0.0 | NW | 0.0 | 0.1 | |||||||||
| 00:20 | 18.6 | 92.7 | 1023.3 | 0.3 | ENE | 3.5 | ENE | 0.0 | 0.1 | |||||||||
| 00:25 | 18.5 | 93.3 | 1023.2 | 2.5 | NE | 4.2 | NE | 0.0 | 0.1 | |||||||||
| 00:30 | 18.5 | 93.8 | 1023.2 | 0.0 | NNE | 0.0 | NNE | 0.0 | 0.1 | |||||||||
| 00:35 | 18.6 | 93.0 | 1023.2 | 1.2 | NNE | 4.2 | NNE | 0.0 | 0.1 | |||||||||
| 00:40 | 18.6 | 91.9 | 1023.2 | 1.2 | NNE | 3.2 | NNE | 0.0 | 0.1 | |||||||||
| 00:45 | 18.6 | 90.6 | 1023.2 | 0.0 | NNE | 0.0 | NNE | 0.0 | 0.1 | |||||||||
| 00:50 | 18.6 | 90.3 | 1023.2 | 0.0 | NNE | 0.0 | ENE | 0.0 | 0.1 | |||||||||
| 00:55 | 18.6 | 89.5 | 1023.2 | 0.0 | NNE | 0.0 | NNE | 0.0 | 0.1 | |||||||||
| 01:00 | 18.9 | 88.3 | 1023.1 | 0.0 | NNE | 0.0 | N | 0.0 | 0.1 | |||||||||
| 01:05 | 19.0 | 88.2 | 1023.1 | 0.0 | NNE | 0.0 | NNE | 0.0 | 0.1 | |||||||||
| 01:10 | 19.0 | 88.3 | 1023.1 | 0.0 | NNE | 0.0 | ENE | 0.0 | 0.1 | |||||||||
| 01:15 | 19.0 | 87.8 | 1023.1 | 0.0 | NNE | 0.0 | NE | 0.0 | 0.1 | |||||||||
| 01:20 | 19.0 | 87.0 | 1023.1 | 0.0 | NNE | 0.0 | NE | 0.0 | 0.1 | |||||||||
| 01:25 | 19.0 | 87.4 | 1023.1 | 0.2 | SSW | 5.7 | SW | 0.0 | 0.1 | |||||||||
| 01:30 | 18.9 | 88.8 | 1023.1 | 4.6 | SSW | 6.4 | SSW | 0.0 | 0.1 | |||||||||
| 01:35 | 18.7 | 89.9 | 1023.1 | 4.2 | SSW | 5.7 | SSW | 0.0 | 0.1 | |||||||||
| 01:40 | 18.6 | 91.0 | 1023.2 | 4.2 | SW | 5.7 | SW | 0.0 | 0.1 | |||||||||
| 01:45 | 18.5 | 91.6 | 1023.2 | 4.7 | SW | 5.7 | SW | 0.0 | 0.1 | |||||||||
| 01:50 | 18.4 | 92.2 | 1023.1 | 5.1 | SW | 6.4 | SW | 0.0 | 0.1 | |||||||||
| 01:55 | 18.4 | 92.7 | 1023.1 | 4.7 | SW | 6.4 | SW | 0.0 | 0.1 | |||||||||
| 02:00 | 18.4 | 92.7 | 1023.1 | 3.4 | SSW | 6.7 | SSW | 0.0 | 0.1 | |||||||||
| 02:05 | 18.4 | 92.4 | 1023.0 | 3.8 | SSW | 6.7 | SSW | 0.0 | 0.1 | |||||||||
| 02:10 | 18.5 | 92.3 | 1023.0 | 3.5 | SW | 6.0 | SW | 0.0 | 0.1 | |||||||||
| 02:15 | 18.5 | 92.3 | 1023.0 | 4.8 | SW | 6.4 | SW | 0.0 | 0.1 | |||||||||
| 02:20 | 18.5 | 92.6 | 1023.0 | 4.2 | SW | 5.7 | WSW | 0.0 | 0.1 | |||||||||
| 02:25 | 18.5 | 92.8 | 1022.9 | 5.0 | SW | 6.7 | SW | 0.0 | 0.1 | |||||||||
| 02:30 | 18.4 | 93.0 | 1022.9 | 6.1 | SW | 8.5 | SW | 0.0 | 0.1 | |||||||||
| 02:35 | 18.4 | 93.5 | 1022.8 | 7.4 | SW | 9.5 | SW | 0.0 | 0.1 | |||||||||
| 02:40 | 18.4 | 93.4 | 1022.8 | 8.1 | SW | 10.6 | SW | 0.0 | 0.1 | |||||||||
| 02:45 | 18.4 | 93.2 | 1022.8 | 7.9 | SW | 11.3 | SW | 0.0 | 0.1 | |||||||||
| 02:50 | 18.3 | 93.0 | 1022.8 | 7.7 | SW | 11.0 | WSW | 0.0 | 0.1 | |||||||||
| 02:55 | 18.3 | 92.9 | 1022.7 | 7.3 | SW | 10.6 | SW | 0.0 | 0.2 | |||||||||
| 03:00 | 18.3 | 93.3 | 1022.7 | 7.5 | WSW | 10.3 | SW | 0.0 | 0.1 | |||||||||
| 03:05 | 18.3 | 93.5 | 1022.7 | 5.7 | WSW | 8.1 | WSW | 0.0 | 0.1 | |||||||||
| 03:10 | 18.4 | 93.3 | 1022.7 | 7.2 | SW | 9.2 | WSW | 0.0 | 0.1 | |||||||||
| 03:15 | 18.4 | 93.2 | 1022.6 | 4.9 | SW | 6.4 | SW | 0.0 | 0.1 | |||||||||
| 03:20 | 18.4 | 93.2 | 1022.6 | 3.7 | SSW | 5.0 | SSW | 0.0 | 0.1 | |||||||||
| 03:25 | 18.4 | 93.1 | 1022.6 | 3.6 | SSW | 5.7 | SSW | 0.0 | 0.1 | |||||||||
| 03:30 | 18.4 | 92.9 | 1022.6 | 5.4 | SSW | 7.1 | SW | 0.0 | 0.1 | |||||||||
| 03:35 | 18.5 | 92.4 | 1022.5 | 5.2 | SSW | 7.1 | SSW | 0.0 | 0.1 | |||||||||
| 03:40 | 18.6 | 92.0 | 1022.4 | 5.5 | SSW | 6.7 | SSW | 0.0 | 0.1 | |||||||||
| 03:45 | 18.6 | 91.3 | 1022.4 | 5.4 | SSW | 7.4 | SSW | 0.0 | 0.1 | |||||||||
| 03:50 | 18.7 | 90.6 | 1022.3 | 5.9 | SSW | 8.5 | SSW | 0.0 | 0.1 | |||||||||
| 03:55 | 18.7 | 90.4 | 1022.3 | 4.4 | SSW | 7.4 | SSW | 0.0 | 0.1 | |||||||||
| 04:00 | 18.5 | 90.9 | 1022.3 | 5.5 | SSW | 8.1 | SSW | 0.0 | 0.1 | |||||||||
| 04:05 | 18.4 | 91.3 | 1022.3 | 4.3 | SSW | 6.7 | SSW | 0.0 | 0.1 | |||||||||
| 04:10 | 18.3 | 91.8 | 1022.3 | 5.9 | SSW | 9.2 | SSW | 0.0 | 0.1 | |||||||||
| 04:15 | 18.3 | 92.2 | 1022.3 | 6.3 | SSW | 9.5 | SW | 0.0 | 0.1 | |||||||||
| 04:20 | 18.3 | 92.5 | 1022.2 | 8.0 | SSW | 11.3 | SSW | 0.0 | 0.1 | |||||||||
| 04:25 | 18.3 | 92.7 | 1022.2 | 6.5 | SW | 8.8 | SSW | 0.0 | 0.1 | |||||||||
| 04:30 | 18.2 | 92.9 | 1022.2 | 7.6 | SW | 10.6 | SW | 0.0 | 0.1 | |||||||||
| 04:35 | 18.2 | 92.9 | 1022.2 | 7.2 | SW | 9.9 | SW | 0.0 | 0.1 | |||||||||
| 04:40 | 18.1 | 93.0 | 1022.1 | 7.7 | SW | 11.0 | SW | 0.0 | 0.1 | |||||||||
| 04:45 | 18.2 | 93.4 | 1022.1 | 9.5 | SW | 14.1 | WSW | 0.0 | 0.2 | |||||||||
| 04:50 | 18.2 | 93.3 | 1022.1 | 10.8 | SW | 14.5 | WSW | 0.0 | 0.2 | |||||||||
| 04:55 | 18.1 | 93.5 | 1022.1 | 11.4 | SW | 15.9 | WSW | 0.0 | 0.3 | |||||||||
| 05:00 | 18.2 | 93.7 | 1022.1 | 12.7 | SW | 16.6 | WSW | 0.0 | 0.8 | |||||||||
| 05:05 | 18.2 | 93.7 | 1022.1 | 14.0 | SW | 19.4 | SW | 0.0 | 1.4 | |||||||||
| 05:10 | 18.3 | 93.5 | 1022.1 | 14.6 | SW | 18.7 | SW | 0.0 | 2.5 | |||||||||
| 05:15 | 18.3 | 93.6 | 1022.1 | 15.2 | SW | 19.1 | SW | 0.0 | 4.1 | |||||||||
| 05:20 | 18.3 | 93.7 | 1022.1 | 17.0 | SW | 21.9 | SW | 0.0 | 5.7 | |||||||||
| 05:25 | 18.3 | 93.5 | 1022.1 | 14.5 | SW | 19.4 | SW | 0.0 | 8.7 | |||||||||
| 05:30 | 18.2 | 93.6 | 1022.2 | 14.2 | SW | 20.5 | SW | 0.0 | 11.5 | |||||||||
| 05:35 | 18.3 | 93.5 | 1022.2 | 14.9 | SW | 20.5 | SW | 0.0 | 19.8 | |||||||||
| 05:40 | 18.3 | 93.3 | 1022.2 | 14.6 | SW | 19.1 | SW | 0.0 | 36.2 | |||||||||
| 05:45 | 18.4 | 93.2 | 1022.3 | 15.6 | SW | 21.5 | SW | 0.0 | 48.7 | |||||||||
| 05:50 | 18.4 | 92.9 | 1022.4 | 13.2 | SW | 18.0 | SW | 0.0 | 58.2 | |||||||||
| 05:55 | 18.4 | 93.0 | 1022.4 | 12.8 | SW | 17.7 | SW | 0.0 | 72.9 | |||||||||
| 06:00 | 18.4 | 93.0 | 1022.4 | 11.3 | SW | 16.2 | WSW | 0.0 | 87.6 | |||||||||
| 06:05 | 18.4 | 93.0 | 1022.4 | 12.5 | SW | 16.6 | SW | 0.0 | 105.2 | |||||||||
| 06:10 | 18.4 | 93.1 | 1022.4 | 10.9 | SW | 13.8 | SW | 0.0 | 122.1 | |||||||||
| 06:15 | 18.4 | 93.1 | 1022.4 | 11.7 | SW | 15.5 | WSW | 0.0 | 136.3 | |||||||||
| 06:20 | 18.5 | 92.9 | 1022.5 | 10.5 | SW | 13.8 | SW | 0.0 | 150.1 | |||||||||
| 06:25 | 18.6 | 92.8 | 1022.5 | 10.1 | SW | 14.5 | WSW | 0.0 | 164.6 | |||||||||
| 06:30 | 18.7 | 92.5 | 1022.5 | 8.2 | SW | 11.7 | SW | 0.0 | 179.5 | |||||||||
| 06:35 | 18.7 | 92.3 | 1022.5 | 9.2 | SW | 12.7 | SW | 0.0 | 196.2 | |||||||||
| 06:40 | 18.8 | 92.0 | 1022.6 | 7.9 | SW | 10.6 | SW | 0.0 | 214.4 | |||||||||
| 06:45 | 19.0 | 91.5 | 1022.6 | 8.2 | SW | 11.0 | SW | 0.0 | 231.5 | |||||||||
| 06:50 | 19.1 | 91.0 | 1022.6 | 7.5 | SW | 11.0 | SW | 0.0 | 249.1 | |||||||||
| 06:55 | 19.2 | 90.3 | 1022.6 | 9.0 | SW | 13.1 | SW | 0.0 | 269.0 | |||||||||
| 07:00 | 19.3 | 90.1 | 1022.7 | 9.5 | SW | 13.4 | SW | 0.0 | 329.1 | |||||||||
| 07:05 | 19.6 | 89.2 | 1022.7 | 8.2 | SW | 11.3 | WSW | 0.0 | 312.3 | |||||||||
| 07:10 | 19.7 | 87.9 | 1022.7 | 10.5 | SW | 13.4 | SW | 0.0 | 315.5 | |||||||||
| 07:15 | 19.7 | 87.3 | 1022.7 | 11.8 | SW | 14.8 | SSW | 0.0 | 346.8 | |||||||||
| 07:20 | 19.9 | 86.2 | 1022.7 | 13.2 | SW | 17.3 | SSW | 0.0 | 362.4 | |||||||||
| 07:25 | 19.9 | 85.5 | 1022.7 | 12.9 | SW | 15.9 | SSW | 0.0 | 372.0 | |||||||||
| 07:30 | 20.0 | 85.2 | 1022.7 | 10.6 | SW | 14.5 | SW | 0.0 | 386.1 | |||||||||
| 07:35 | 20.2 | 84.6 | 1022.7 | 8.5 | SW | 12.0 | SW | 0.0 | 375.0 | |||||||||
| 07:40 | 20.4 | 83.3 | 1022.7 | 11.0 | SSW | 15.5 | SSW | 0.0 | 229.9 | |||||||||
| 07:45 | 20.2 | 83.9 | 1022.8 | 10.4 | SW | 14.8 | SW | 0.0 | 255.0 | |||||||||
| 07:50 | 20.3 | 83.5 | 1022.7 | 12.5 | SSW | 17.3 | SW | 0.0 | 320.2 | |||||||||
| 07:55 | 20.4 | 82.6 | 1022.7 | 12.0 | SW | 15.9 | SW | 0.0 | 219.5 | |||||||||
| 08:00 | 20.5 | 82.1 | 1022.7 | 10.6 | SW | 14.8 | SW | 0.0 | 290.9 | |||||||||
| 08:05 | 20.5 | 81.6 | 1022.7 | 6.0 | SW | 11.3 | SSW | 0.0 | 272.1 | |||||||||
| 08:10 | 20.7 | 81.2 | 1022.7 | 2.3 | SSW | 7.4 | SSW | 0.0 | 458.5 | |||||||||
| 08:15 | 20.8 | 82.5 | 1022.7 | 5.1 | N | 9.5 | NNE | 0.0 | 545.5 | |||||||||
| 08:20 | 20.8 | 83.5 | 1022.8 | 4.3 | NNE | 9.2 | NW | 0.0 | 584.7 | |||||||||
| 08:25 | 20.9 | 82.7 | 1022.8 | 2.0 | NNE | 7.1 | NNE | 0.0 | 616.2 | |||||||||
| 08:30 | 21.2 | 82.1 | 1022.9 | 1.7 | NNE | 5.7 | NE | 0.0 | 375.7 | |||||||||
| 08:35 | 21.4 | 81.5 | 1022.9 | 1.2 | NNE | 7.8 | NNE | 0.0 | 263.3 | |||||||||
| 08:40 | 21.5 | 80.8 | 1022.8 | 1.1 | N | 6.7 | N | 0.0 | 408.4 | |||||||||
| 08:45 | 21.7 | 79.9 | 1022.8 | 1.7 | NNW | 7.8 | NNW | 0.0 | 634.5 | |||||||||
| 08:50 | 22.0 | 75.1 | 1022.8 | 1.9 | SW | 8.1 | WSW | 0.0 | 654.9 | |||||||||
| 08:55 | 22.7 | 73.2 | 1022.8 | 2.2 | SSW | 5.7 | SW | 0.0 | 646.7 | |||||||||
| 09:00 | 23.3 | 72.1 | 1022.8 | 2.0 | NNW | 8.1 | WSW | 0.0 | 651.5 | |||||||||
| 09:05 | 23.2 | 71.8 | 1022.7 | 6.3 | WSW | 12.0 | SSW | 0.0 | 653.0 | |||||||||
| 09:10 | 22.9 | 71.3 | 1022.8 | 6.0 | SW | 11.0 | SSW | 0.0 | 581.6 | |||||||||
| 09:15 | 23.0 | 70.9 | 1022.9 | 3.9 | W | 7.8 | WNW | 0.0 | 674.3 | |||||||||
| 09:20 | 23.5 | 68.7 | 1022.9 | 1.5 | SSW | 9.5 | SW | 0.0 | 677.4 | |||||||||
| 09:25 | 23.8 | 67.9 | 1022.8 | 3.4 | SW | 10.3 | SW | 0.0 | 678.1 | |||||||||
| 09:30 | 23.8 | 70.7 | 1022.8 | 3.1 | NW | 9.5 | NW | 0.0 | 686.5 | |||||||||
| 09:35 | 23.6 | 71.4 | 1022.8 | 5.8 | WNW | 12.0 | NNW | 0.0 | 596.7 | |||||||||
| 09:40 | 23.5 | 70.7 | 1022.8 | 4.4 | WNW | 12.0 | NNW | 0.0 | 696.1 | |||||||||
| 09:45 | 23.9 | 67.3 | 1022.8 | 2.3 | NNW | 9.9 | NW | 0.0 | 716.0 | |||||||||
| 09:50 | 24.3 | 65.2 | 1022.8 | 4.7 | W | 10.3 | NNW | 0.0 | 727.0 | |||||||||
| 09:55 | 24.7 | 64.5 | 1022.8 | 3.4 | S | 9.9 | S | 0.0 | 738.3 | |||||||||
| 10:00 | 25.1 | 62.8 | 1022.8 | 3.7 | SE | 11.0 | ESE | 0.0 | 746.4 | |||||||||
| 10:05 | 25.8 | 60.5 | 1022.8 | 3.8 | SSW | 17.0 | SW | 0.0 | 758.0 | |||||||||
| 10:10 | 25.8 | 60.1 | 1022.7 | 5.0 | S | 15.2 | SE | 0.0 | 765.8 | |||||||||
| 10:15 | 25.9 | 59.6 | 1022.8 | 7.6 | S | 15.2 | SSE | 0.0 | 770.1 | |||||||||
| 10:20 | 25.3 | 61.9 | 1022.7 | 11.5 | S | 21.5 | SSE | 0.0 | 775.7 | |||||||||
| 10:25 | 25.2 | 62.0 | 1022.7 | 12.1 | SSE | 19.8 | SSE | 0.0 | 776.8 | |||||||||
| 10:30 | 25.2 | 61.2 | 1022.8 | 13.2 | SSE | 23.0 | SSE | 0.0 | 782.2 | |||||||||
| 10:35 | 25.1 | 61.7 | 1022.8 | 12.5 | SSE | 20.8 | SSE | 0.0 | 784.9 | |||||||||
| 10:40 | 25.0 | 61.8 | 1022.7 | 13.3 | SSE | 22.6 | SE | 0.0 | 791.5 | |||||||||
| 10:45 | 25.4 | 60.1 | 1022.7 | 13.6 | SSE | 23.3 | SSE | 0.0 | 797.5 | |||||||||
| 10:50 | 25.2 | 60.6 | 1022.7 | 11.2 | SSE | 21.2 | SSE | 0.0 | 801.0 | |||||||||
| 10:55 | 25.5 | 59.6 | 1022.7 | 12.3 | S | 20.5 | SSE | 0.0 | 803.0 | |||||||||
| 11:00 | 25.4 | 59.6 | 1022.8 | 10.3 | S | 18.4 | SSE | 0.0 | 805.0 | |||||||||
| 11:05 | 25.1 | 60.5 | 1022.7 | 11.8 | S | 18.7 | SE | 0.0 | 810.0 | |||||||||
| 11:10 | 25.3 | 60.0 | 1022.8 | 8.7 | S | 20.5 | SSE | 0.0 | 810.0 | |||||||||
| 11:15 | 25.4 | 59.9 | 1022.8 | 12.4 | SSE | 28.2 | S | 0.0 | 814.0 | |||||||||
| 11:20 | 25.7 | 59.3 | 1022.8 | 9.7 | S | 20.5 | SSE | 0.0 | 814.0 | |||||||||
| 11:25 | 25.7 | 59.2 | 1022.8 | 8.7 | S | 21.2 | S | 0.0 | 748.5 | |||||||||
| 11:30 | 25.6 | 60.1 | 1022.7 | 9.8 | SSW | 21.5 | SW | 0.0 | 827.0 | |||||||||
| 11:35 | 26.0 | 58.7 | 1022.7 | 9.1 | SSE | 21.5 | SE | 0.0 | 837.0 | |||||||||
| 11:40 | 26.3 | 58.1 | 1022.6 | 9.6 | SSE | 20.1 | SSE | 0.0 | 831.0 | |||||||||
| 11:45 | 26.5 | 57.6 | 1022.6 | 10.2 | SSE | 20.5 | SSE | 0.0 | 821.0 | |||||||||
| 11:50 | 26.4 | 57.7 | 1022.5 | 14.9 | SSE | 24.7 | SSE | 0.0 | 820.0 | |||||||||
| 11:55 | 26.4 | 57.9 | 1022.5 | 12.1 | SSE | 21.2 | SE | 0.0 | 846.0 | |||||||||
| 12:00 | 26.5 | 57.8 | 1022.5 | 14.6 | SSE | 28.2 | SSE | 0.0 | 847.0 | |||||||||
| 12:05 | 26.4 | 58.2 | 1022.5 | 13.0 | SSE | 22.2 | SSE | 0.0 | 836.0 | |||||||||
| 12:10 | 26.5 | 58.3 | 1022.6 | 10.5 | SSE | 22.6 | SSE | 0.0 | 833.0 | |||||||||
| 12:15 | 26.6 | 58.3 | 1022.5 | 14.2 | SSE | 23.3 | SSE | 0.0 | 834.0 | |||||||||
| 12:20 | 26.6 | 58.6 | 1022.5 | 9.3 | SSE | 19.1 | SSE | 0.0 | 833.0 | |||||||||
| 12:25 | 26.9 | 57.6 | 1022.5 | 6.9 | SSE | 17.3 | SSE | 0.0 | 835.0 | |||||||||
| 12:30 | 26.9 | 57.8 | 1022.6 | 6.0 | NE | 17.0 | N | 0.0 | 837.0 | |||||||||
| 12:35 | 26.6 | 58.9 | 1022.5 | 8.4 | NNE | 15.2 | NNE | 0.0 | 821.0 | |||||||||
| 12:40 | 26.8 | 58.3 | 1022.4 | 10.6 | NNE | 20.5 | ENE | 0.0 | 791.2 | |||||||||
| 12:45 | 26.7 | 58.4 | 1022.5 | 9.7 | NNE | 19.4 | N | 0.0 | 834.0 | |||||||||
| 12:50 | 26.3 | 59.4 | 1022.5 | 12.9 | N | 21.9 | NNE | 0.0 | 669.8 | |||||||||
| 12:55 | 25.7 | 60.9 | 1022.4 | 7.4 | NNE | 16.2 | NE | 0.0 | 300.6 | |||||||||
| 13:00 | 25.7 | 61.5 | 1022.4 | 4.3 | NE | 13.1 | NNW | 0.0 | 757.2 | |||||||||
| 13:05 | 26.6 | 58.9 | 1022.3 | 10.0 | NNE | 23.0 | N | 0.0 | 985.0 | |||||||||
| 13:10 | 27.0 | 57.5 | 1022.2 | 11.8 | NNE | 21.9 | NNE | 0.0 | 960.0 | |||||||||
| 13:15 | 26.5 | 58.6 | 1022.3 | 6.6 | NNE | 15.5 | NE | 0.0 | 597.0 | |||||||||
| 13:20 | 26.6 | 58.5 | 1022.3 | 10.3 | NE | 23.0 | ENE | 0.0 | 733.4 | |||||||||
| 13:25 | 27.0 | 57.7 | 1022.2 | 7.8 | NE | 19.8 | NE | 0.0 | 714.4 | |||||||||
| 13:30 | 26.9 | 57.9 | 1022.1 | 12.1 | NNE | 23.0 | NE | 0.0 | 494.6 | |||||||||
| 13:35 | 25.9 | 60.7 | 1022.1 | 11.9 | NNE | 22.2 | NE | 0.0 | 331.1 | |||||||||
| 13:40 | 25.4 | 62.9 | 1022.0 | 9.8 | NE | 17.0 | ESE | 0.0 | 709.4 | |||||||||
| 13:45 | 26.5 | 59.9 | 1022.0 | 5.3 | ENE | 13.8 | NE | 0.0 | 644.9 | |||||||||
| 13:50 | 27.0 | 58.3 | 1021.9 | 6.1 | NE | 15.5 | NE | 0.0 | 305.2 | |||||||||
| 13:55 | 26.0 | 61.6 | 1022.0 | 7.1 | NNE | 13.8 | NE | 0.0 | 396.1 | |||||||||
| 14:00 | 25.9 | 62.1 | 1021.9 | 6.6 | NNE | 13.4 | NNE | 0.0 | 485.8 | |||||||||
| 14:05 | 26.1 | 61.7 | 1021.9 | 5.2 | NE | 13.1 | NNE | 0.0 | 295.4 | |||||||||
| 14:10 | 25.8 | 62.6 | 1021.7 | 7.4 | NE | 14.1 | NNE | 0.0 | 221.8 | |||||||||
| 14:15 | 25.3 | 64.4 | 1021.7 | 7.9 | NNE | 17.0 | NNE | 0.0 | 266.5 | |||||||||
| 14:20 | 24.9 | 65.7 | 1021.8 | 7.1 | NNE | 15.2 | NNE | 0.0 | 510.5 | |||||||||
| 14:25 | 25.3 | 65.5 | 1021.6 | 7.7 | NNE | 15.9 | NNE | 0.0 | 767.1 | |||||||||
| 14:30 | 26.0 | 63.6 | 1021.6 | 9.3 | N | 18.0 | N | 0.0 | 673.5 | |||||||||
| 14:35 | 26.0 | 63.7 | 1021.6 | 7.8 | NE | 17.7 | NNE | 0.0 | 588.8 | |||||||||
| 14:40 | 26.1 | 63.5 | 1021.5 | 8.2 | NE | 21.2 | ENE | 0.0 | 499.1 | |||||||||
| 14:45 | 25.8 | 64.5 | 1021.5 | 9.9 | NNE | 21.5 | NNE | 0.0 | 644.2 | |||||||||
| 14:50 | 25.9 | 64.5 | 1021.5 | 12.1 | ENE | 19.1 | ENE | 0.0 | 578.9 | |||||||||
| 14:55 | 26.4 | 63.1 | 1021.5 | 5.6 | ENE | 15.9 | ENE | 0.0 | 566.5 | |||||||||
| 15:00 | 26.6 | 62.4 | 1021.5 | 4.4 | NE | 11.0 | NE | 0.0 | 565.9 | |||||||||
| 15:05 | 26.7 | 62.5 | 1021.5 | 5.8 | NNE | 14.1 | NNE | 0.0 | 550.1 | |||||||||
| 15:10 | 26.4 | 63.3 | 1021.3 | 8.1 | NNE | 16.2 | ENE | 0.0 | 458.5 | |||||||||
| 15:15 | 26.1 | 64.1 | 1021.3 | 8.1 | NE | 16.6 | NE | 0.0 | 275.6 | |||||||||
| 15:20 | 25.9 | 65.0 | 1021.3 | 7.6 | ENE | 15.2 | NNE | 0.0 | 150.4 | |||||||||
| 15:25 | 25.5 | 66.5 | 1021.4 | 4.9 | NNE | 11.7 | NNE | 0.0 | 292.9 | |||||||||
| 15:30 | 24.8 | 68.9 | 1021.3 | 5.7 | NNE | 9.2 | NNW | 0.0 | 190.6 | |||||||||
| 15:35 | 24.6 | 69.8 | 1021.2 | 2.6 | NE | 7.8 | NE | 0.0 | 203.8 | |||||||||
| 15:40 | 24.8 | 69.5 | 1021.2 | 5.7 | NNE | 13.4 | NNE | 0.0 | 229.9 | |||||||||
| 15:45 | 24.9 | 69.7 | 1021.3 | 5.8 | NNE | 12.4 | NNE | 0.0 | 486.1 | |||||||||
| 15:50 | 25.5 | 68.5 | 1021.4 | 6.4 | NNE | 11.3 | NNE | 0.0 | 526.1 | |||||||||
| 15:55 | 25.5 | 68.1 | 1021.4 | 3.6 | NNE | 9.5 | NNW | 0.0 | 442.3 | |||||||||
| 16:00 | 26.1 | 66.3 | 1021.4 | 7.1 | NNE | 13.1 | NNE | 0.0 | 357.9 | |||||||||
| 16:05 | 25.3 | 69.1 | 1021.4 | 8.9 | NNE | 14.1 | NNE | 0.0 | 301.5 | |||||||||
| 16:10 | 24.9 | 70.7 | 1021.4 | 8.3 | NNE | 16.2 | NE | 0.0 | 246.5 | |||||||||
| 16:15 | 24.4 | 72.6 | 1021.4 | 8.9 | NNE | 14.8 | NNE | 0.0 | 294.1 | |||||||||
| 16:20 | 24.3 | 73.1 | 1021.3 | 5.8 | NNE | 12.7 | NNE | 0.0 | 233.9 | |||||||||
| 16:25 | 24.2 | 73.2 | 1021.3 | 8.9 | NNE | 14.1 | NNE | 0.0 | 292.7 | |||||||||
| 16:30 | 24.1 | 73.7 | 1021.3 | 8.3 | NNE | 15.5 | NNE | 0.0 | 253.0 | |||||||||
| 16:35 | 24.1 | 73.3 | 1021.2 | 6.8 | NE | 13.4 | ENE | 0.0 | 299.3 | |||||||||
| 16:40 | 24.1 | 73.2 | 1021.2 | 7.6 | NNE | 11.3 | NNE | 0.0 | 165.9 | |||||||||
| 16:45 | 23.5 | 75.3 | 1021.3 | 5.9 | NNE | 10.6 | NNE | 0.0 | 209.6 | |||||||||
| 16:50 | 23.7 | 74.5 | 1021.4 | 5.3 | NNE | 10.6 | NNE | 0.0 | 223.6 | |||||||||
| 16:55 | 23.6 | 74.7 | 1021.4 | 4.6 | NNE | 8.1 | NE | 0.0 | 96.9 | |||||||||
| 17:00 | 23.3 | 75.7 | 1021.4 | 1.7 | NNE | 8.5 | NNE | 0.0 | 133.6 | |||||||||
| 17:05 | 23.1 | 76.3 | 1021.3 | 6.0 | NNE | 8.5 | N | 0.0 | 98.7 | |||||||||
| 17:10 | 23.0 | 76.8 | 1021.3 | 3.3 | NNE | 6.0 | NNE | 0.0 | 73.3 | |||||||||
| 17:15 | 22.9 | 77.2 | 1021.3 | 4.1 | NNE | 6.7 | N | 0.0 | 70.8 | |||||||||
| 17:20 | 22.7 | 77.8 | 1021.2 | 4.5 | NNE | 8.5 | N | 0.0 | 61.1 | |||||||||
| 17:25 | 22.5 | 78.2 | 1021.1 | 5.6 | NNE | 9.9 | NNE | 0.0 | 63.0 | |||||||||
| 17:30 | 22.5 | 78.3 | 1021.1 | 3.4 | NE | 6.7 | NNE | 0.0 | 87.2 | |||||||||
| 17:35 | 22.6 | 78.0 | 1021.1 | 3.9 | NNE | 7.4 | NNE | 0.0 | 93.4 | |||||||||
| 17:40 | 22.5 | 77.1 | 1021.1 | 1.5 | NW | 6.4 | N | 0.0 | 118.9 | |||||||||
| 17:45 | 22.8 | 76.5 | 1021.1 | 2.2 | N | 8.5 | N | 0.0 | 93.9 | |||||||||
| 17:50 | 22.5 | 78.1 | 1021.1 | 3.9 | NNE | 6.7 | NNE | 0.0 | 83.8 | |||||||||
| 17:55 | 22.3 | 78.7 | 1021.2 | 1.0 | N | 4.6 | NNW | 0.0 | 62.4 | |||||||||
| 18:00 | 22.3 | 78.1 | 1021.2 | 3.4 | N | 13.1 | NNE | 0.0 | 37.6 | |||||||||
| 18:05 | 22.3 | 78.4 | 1021.2 | 2.3 | NNE | 7.1 | NNE | 0.0 | 27.5 | |||||||||
| 18:10 | 22.0 | 79.6 | 1021.2 | 5.0 | NNE | 8.1 | NE | 0.0 | 19.2 | |||||||||
| 18:15 | 21.7 | 80.8 | 1021.2 | 4.5 | N | 7.1 | NW | 0.0 | 12.6 | |||||||||
| 18:20 | 21.4 | 81.8 | 1021.2 | 5.3 | N | 7.4 | NNE | 0.0 | 7.6 | |||||||||
| 18:25 | 21.3 | 82.4 | 1021.2 | 4.2 | NNE | 6.4 | N | 0.0 | 2.9 | |||||||||
| 18:30 | 21.2 | 82.6 | 1021.2 | 2.4 | NE | 5.7 | NNE | 0.0 | 2.1 | |||||||||
| 18:35 | 21.0 | 83.4 | 1021.2 | 5.5 | NNE | 7.8 | NNE | 0.0 | 2.6 | |||||||||
| 18:40 | 20.9 | 84.1 | 1021.2 | 4.3 | NNE | 7.1 | NNE | 0.0 | 0.6 | |||||||||
| 18:45 | 20.8 | 84.6 | 1021.2 | 5.0 | N | 7.8 | N | 0.0 | 0.2 | |||||||||
| 18:50 | 20.8 | 84.6 | 1021.2 | 0.8 | NNE | 6.0 | N | 0.0 | 0.1 | |||||||||
| 18:55 | 20.8 | 84.1 | 1021.2 | 1.2 | W | 7.4 | WSW | 0.0 | 0.1 | |||||||||
| 19:00 | 21.0 | 83.0 | 1021.2 | 4.1 | NNW | 9.2 | W | 0.0 | 0.1 | |||||||||
| 19:05 | 20.8 | 84.4 | 1021.3 | 4.1 | N | 7.4 | N | 0.0 | 0.1 | |||||||||
| 19:10 | 20.7 | 84.8 | 1021.4 | 4.4 | NNE | 7.1 | NNE | 0.0 | 0.1 | |||||||||
| 19:15 | 20.5 | 85.3 | 1021.4 | 3.7 | NNE | 6.0 | NNE | 0.0 | 0.1 | |||||||||
| 19:20 | 20.3 | 85.4 | 1021.4 | 4.1 | NE | 6.7 | NNE | 0.0 | 0.1 | |||||||||
| 19:25 | 20.1 | 84.8 | 1021.4 | 3.5 | NE | 5.7 | NE | 0.0 | 0.1 | |||||||||
| 19:30 | 20.1 | 85.9 | 1021.5 | 0.0 | NNE | 0.0 | ENE | 0.0 | 0.1 | |||||||||
| 19:35 | 20.1 | 84.8 | 1021.6 | 0.0 | NNE | 0.0 | WNW | 0.0 | 0.1 | |||||||||
| 19:40 | 20.6 | 80.3 | 1021.7 | 1.2 | W | 6.4 | W | 0.0 | 0.1 | |||||||||
| Máxima | 27.0 | 94.2 | 1023.4 | 17.0 | SW | 28.2 | SSE | 0.0 | 985.0 | |||||||||
| Mínima | 18.1 | 57.5 | 1021.1 | |||||||||||||||
| Total | 0.0 | |||||||||||||||||